Location: Hopville
(44.8032°N, 123.1329°W)
Time: 17:28:58
(UTC+00:00)

Meteor 2-10 - Pass Details

Date: 24 January 2021
Orbit: 737 x 869 km, 81.2° (Epoch: 28 February)

Event Time Altitude Azimuth Distance (km) Brightness Sun altitude
Exits shadow 13:11:30 57° 340° (NNW) 970 4.3 -26.2°
Drops below altitude 10° 13:15:56 10° 7° (N) 2,401 6.6 -25.4°
Sets 13:18:18 0° 9° (N) 3,316 7.4 -24.9°
